Hourly Weather Slotwina

Today, 7 July, Tuesday

Time Temperature Precipitation Wind Pressure Humidity
00:00 +13°C° 0.7 mm 2 mps 716 mmHg 90%
01:00 +12°C° 0.7 mm 2 mps 716 mmHg 94%
02:00 +12°C° 0.4 mm 2 mps 717 mmHg 93%
03:00 +12°C° 0.4 mm 2 mps 717 mmHg 93%
04:00 +12°C° 0.4 mm 2 mps 717 mmHg 93%
05:00 +12°C° 0.3 mm 2 mps 717 mmHg 92%
06:00 +12°C° 0.3 mm 2 mps 718 mmHg 91%
07:00 +11°C° 0.3 mm 3 mps 718 mmHg 90%
08:00 +12°C° 0.3 mm 3 mps 718 mmHg 83%
09:00 +13°C° 0.3 mm 3 mps 718 mmHg 77%
10:00 +16°C° 0.3 mm 3 mps 719 mmHg 71%
11:00 +15°C° 0.2 mm 4 mps 719 mmHg 66%
12:00 +17°C° 0.2 mm 4 mps 719 mmHg 61%
13:00 +18°C° 0.2 mm 4 mps 719 mmHg 56%
14:00 +18°C° 0 mm 4 mps 719 mmHg 55%
15:00 +18°C° 0 mm 4 mps 719 mmHg 55%
16:00 +18°C° 0 mm 4 mps 719 mmHg 54%
17:00 +17°C° 0 mm 3 mps 718 mmHg 61%
18:00 +16°C° 0 mm 2 mps 718 mmHg 67%
19:00 +14°C° 0 mm 1 mps 718 mmHg 74%
20:00 +13°C° 0 mm 1 mps 718 mmHg 77%
21:00 +12°C° 0 mm 1 mps 719 mmHg 80%
22:00 +11°C° 0 mm 1 mps 719 mmHg 83%
23:00 +11°C° 0 mm 1 mps 719 mmHg 83%

Tomorrow, 8 July, Wednesday

Time Temperature Precipitation Wind Pressure Humidity
00:00 +10°C° 0 mm 1 mps 718 mmHg 84%
01:00 +9°C° 0 mm 2 mps 718 mmHg 84%
02:00 +9°C° 0 mm 2 mps 718 mmHg 85%
03:00 +9°C° 0 mm 2 mps 718 mmHg 85%
04:00 +9°C° 0 mm 2 mps 718 mmHg 86%
05:00 +12°C° 0 mm 2 mps 718 mmHg 79%
06:00 +14°C° 0 mm 2 mps 719 mmHg 72%
07:00 +16°C° 0 mm 3 mps 719 mmHg 65%
08:00 +17°C° 0.1 mm 3 mps 719 mmHg 65%
09:00 +17°C° 0.1 mm 3 mps 719 mmHg 64%
10:00 +18°C° 0.1 mm 4 mps 719 mmHg 64%
11:00 +19°C° 0.1 mm 4 mps 719 mmHg 62%
12:00 +19°C° 0.1 mm 4 mps 719 mmHg 61%
13:00 +20°C° 0.1 mm 3 mps 719 mmHg 59%
14:00 +19°C° 0.1 mm 3 mps 719 mmHg 65%
15:00 +18°C° 0.1 mm 2 mps 718 mmHg 71%
16:00 +17°C° 0.1 mm 2 mps 718 mmHg 77%
17:00 +18°C° 0.1 mm 1 mps 718 mmHg 79%
18:00 +16°C° 0.1 mm 1 mps 718 mmHg 82%
19:00 +16°C° 0.1 mm 1 mps 718 mmHg 85%
20:00 +15°C° 0.8 mm 1 mps 718 mmHg 89%
21:00 +14°C° 0.8 mm 1 mps 718 mmHg 93%
22:00 +14°C° 0.8 mm 1 mps 718 mmHg 97%
23:00 +14°C° 0.4 mm 1 mps 719 mmHg 97%

Day after tomorrow, 9 July, Thursday

Time Temperature Precipitation Wind Pressure Humidity
00:00 +14°C° 0.4 mm 1 mps 719 mmHg 97%
01:00 +14°C° 0.4 mm 1 mps 719 mmHg 97%
02:00 +13°C° 0 mm 1 mps 719 mmHg 97%
03:00 +13°C° 0 mm 1 mps 720 mmHg 97%
04:00 +12°C° 0 mm 1 mps 720 mmHg 97%
05:00 +13°C° 0 mm 1 mps 720 mmHg 94%
06:00 +14°C° 0 mm 1 mps 720 mmHg 92%
07:00 +14°C° 0 mm 1 mps 721 mmHg 89%
08:00 +16°C° 0 mm 1 mps 721 mmHg 81%
09:00 +17°C° 0 mm 0 mps 721 mmHg 74%
10:00 +18°C° 0 mm 0 mps 722 mmHg 66%
11:00 +21°C° 0 mm 1 mps 722 mmHg 62%
12:00 +22°C° 0 mm 1 mps 721 mmHg 57%
13:00 +23°C° 0 mm 2 mps 721 mmHg 53%
14:00 +23°C° 0.1 mm 2 mps 721 mmHg 56%
15:00 +23°C° 0.1 mm 2 mps 721 mmHg 60%
16:00 +21°C° 0.1 mm 2 mps 721 mmHg 64%
17:00 +20°C° 0.1 mm 2 mps 720 mmHg 70%
18:00 +20°C° 0.1 mm 1 mps 720 mmHg 76%
19:00 +19°C° 0.1 mm 1 mps 720 mmHg 83%
20:00 +18°C° 0 mm 1 mps 720 mmHg 84%
21:00 +16°C° 0 mm 1 mps 720 mmHg 86%
22:00 +16°C° 0 mm 1 mps 720 mmHg 87%
23:00 +15°C° 0 mm 1 mps 720 mmHg 87%

10 July, Friday

Time Temperature Precipitation Wind Pressure Humidity
00:00 +15°C° 0 mm 1 mps 719 mmHg 87%
01:00 +15°C° 0 mm 2 mps 719 mmHg 88%
02:00 +15°C° 0 mm 2 mps 719 mmHg 88%
03:00 +15°C° 0 mm 2 mps 718 mmHg 88%
04:00 +15°C° 0 mm 2 mps 718 mmHg 88%
05:00 +17°C° 0 mm 2 mps 718 mmHg 83%
06:00 +19°C° 0 mm 2 mps 718 mmHg 77%
07:00 +21°C° 0 mm 3 mps 718 mmHg 72%
08:00 +24°C° 0 mm 3 mps 718 mmHg 65%
09:00 +25°C° 0 mm 4 mps 718 mmHg 59%
10:00 +27°C° 0 mm 5 mps 718 mmHg 52%
11:00 +27°C° 0 mm 5 mps 718 mmHg 51%
12:00 +28°C° 0 mm 5 mps 718 mmHg 49%
13:00 +29°C° 0 mm 5 mps 717 mmHg 47%
14:00 +29°C° 0 mm 5 mps 717 mmHg 49%
15:00 +28°C° 0 mm 5 mps 716 mmHg 51%
16:00 +28°C° 0 mm 5 mps 716 mmHg 53%
17:00 +27°C° 0 mm 4 mps 716 mmHg 59%
18:00 +25°C° 0 mm 4 mps 716 mmHg 66%
19:00 +22°C° 0 mm 3 mps 716 mmHg 73%
20:00 +20°C° 0.9 mm 2 mps 716 mmHg 80%
21:00 +19°C° 0.9 mm 2 mps 717 mmHg 88%
22:00 +18°C° 0.9 mm 1 mps 717 mmHg 96%
23:00 +16°C° 1.9 mm 1 mps 718 mmHg 96%

11 July, Saturday

Time Temperature Precipitation Wind Pressure Humidity
00:00 +16°C° 1.9 mm 2 mps 718 mmHg 96%
01:00 +16°C° 1.9 mm 2 mps 719 mmHg 97%
02:00 +15°C° 0.2 mm 2 mps 719 mmHg 95%
03:00 +14°C° 0.2 mm 2 mps 719 mmHg 94%
04:00 +13°C° 0.2 mm 1 mps 719 mmHg 93%
05:00 +13°C° 0.2 mm 1 mps 719 mmHg 91%
06:00 +13°C° 0.2 mm 1 mps 720 mmHg 90%
07:00 +13°C° 0.2 mm 1 mps 720 mmHg 88%
08:00 +13°C° 0.2 mm 1 mps 720 mmHg 88%
09:00 +13°C° 0.2 mm 1 mps 721 mmHg 88%
10:00 +13°C° 0.2 mm 1 mps 721 mmHg 88%
11:00 +13°C° 0.5 mm 1 mps 721 mmHg 87%
12:00 +14°C° 0.5 mm 1 mps 721 mmHg 85%
13:00 +14°C° 0.5 mm 1 mps 721 mmHg 83%
14:00 +15°C° 0.1 mm 1 mps 721 mmHg 76%
15:00 +16°C° 0.1 mm 1 mps 721 mmHg 68%
16:00 +18°C° 0.1 mm 1 mps 721 mmHg 61%
17:00 +16°C° 0 mm 1 mps 721 mmHg 65%
18:00 +14°C° 0 mm 0 mps 721 mmHg 69%
19:00 +13°C° 0 mm 0 mps 721 mmHg 73%
20:00 +12°C° 0 mm 0 mps 721 mmHg 74%
21:00 +12°C° 0 mm 1 mps 721 mmHg 75%
22:00 +11°C° 0 mm 1 mps 721 mmHg 77%
23:00 +11°C° 0 mm 1 mps 721 mmHg 78%

12 July, Sunday

Time Temperature Precipitation Wind Pressure Humidity
00:00 +11°C° 0 mm 1 mps 721 mmHg 79%
01:00 +10°C° 0 mm 1 mps 721 mmHg 80%
02:00 +10°C° 0 mm 1 mps 721 mmHg 83%
03:00 +10°C° 0 mm 1 mps 722 mmHg 85%
04:00 +9°C° 0 mm 1 mps 722 mmHg 88%
05:00 +11°C° 0 mm 1 mps 722 mmHg 81%
06:00 +13°C° 0 mm 1 mps 722 mmHg 75%
07:00 +15°C° 0 mm 1 mps 723 mmHg 68%
08:00 +16°C° 0.1 mm 1 mps 723 mmHg 66%
09:00 +17°C° 0.1 mm 2 mps 723 mmHg 63%
10:00 +18°C° 0.1 mm 3 mps 723 mmHg 60%
11:00 +18°C° 0.2 mm 3 mps 723 mmHg 58%
12:00 +19°C° 0.2 mm 3 mps 723 mmHg 56%
13:00 +19°C° 0.2 mm 3 mps 723 mmHg 54%
14:00 +19°C° 0.2 mm 3 mps 723 mmHg 58%
15:00 +19°C° 0.2 mm 3 mps 723 mmHg 61%
16:00 +18°C° 0.2 mm 3 mps 723 mmHg 65%
17:00 +17°C° 0.1 mm 3 mps 723 mmHg 70%
18:00 +16°C° 0.1 mm 2 mps 723 mmHg 75%
19:00 +14°C° 0.1 mm 2 mps 723 mmHg 80%
20:00 +13°C° 0 mm 1 mps 723 mmHg 80%
21:00 +13°C° 0 mm 1 mps 724 mmHg 80%
22:00 +12°C° 0 mm 1 mps 724 mmHg 81%
23:00 +11°C° 0 mm 1 mps 724 mmHg 83%
Show more